Orbital Elements at Epoch 2459200.5 (2020-Dec-17.0) TDB
Reference: JPL 14 (heliocentric ecliptic J2000)
Element | Value | Uncertainty (1-sigma) | Units |
e | .1578537782631068 | 1.3393e-07 | |
a | 2.572360273636613 | 2.4977e-08 | au |
q | 2.166303485389154 | 3.5595e-07 | au |
i | 8.458990102985844 | 1.0638e-05 | deg |
node | 31.56490209092195 | 3.7822e-05 | deg |
peri | 19.44492669463913 | 6.1152e-05 | deg |
M | 252.5461312563471 | 4.4051e-05 | deg |
tp | 2459650.296087361285 (2022-Mar-11.79608736) | 0.0001884 | TDB |
period | 1506.94054428475 4.13 | 2.1948e-05 6.009e-08 | d yr |
n | .2388946275056056 | 3.4794e-09 | deg/d |
Q | 2.978417061884072 | 2.8919e-08 | au |
|
| | Orbit Determination Parameters
Additional Information
|